Showing default

INTELSAT 515, 19772

Orbit data source: Space-Track

INTELSAT 515, 19772 is a payload satellite owned by INTELSAT (US) in GEO that was launched on Fri, 27 Jan 1989 UTC via an ARIANE 2 launch vehicle from the French Guiana (FRGUI). Payload-class satellites include a variety of spacecraft equipped with specific instruments for various scientific and technological missions. These include communications satellites like Starlink; space stations such as the ISS; scientific satellites like the Hubble; Earth observation satellites from companies like Planet Labs, Umbra, and HawkEye 360; GPS; miniature CubeSats for education and research; and military/defense satellites.

Loading next visibility...
Identifier
19772, 1989-006A
Orbit
GEO
Country
Flag of UnknownUnknown / ITSO
Related business
Manufacturer
Ford Ae
Mission
Non-operational Civil Communications
Bus & Motor
FS INTELSAT 5, STAR 37XF
Mass
1,981 kg wet, 884 kg dry
Launch date (UTC)
1989-01-27 (37 years ago)
Launch vehicle
ARIANE 2
Launch site
French Guiana (FRGUI)
Object type
Payload
Rocket body
Debris
Shape & HBR
Hex Poly + 2 Pan, 8.0 m
Radar Cross Section
18.961 m², Large (>1 m²)

Expand to show TLE details & history
Last TLE update: 1 day ago

TLE from 1 day ago
0 INTELSAT 515
1 19772U 89006A   25241.42933299  .00000049  00000-0  00000-0 0  9997
2 19772  14.9334 356.3715 0022875 123.2980 240.2693  0.99101352121731
Epoch: 2025-08-29T10:18Z
TLE epoch observation values (Epoch: 2025-08-29T10:18:14.37Z)
Latitude
0.85188°
Longitude
-132.85325°
Altitude
36,166.218 km
Speed
3.059 km/s
True Right ascension
23h 58m 20s
True Declination
0° 51' 04"
Sunlit
Object was in daylight at epoch
Visualization orbit readout
Latitude
Unknown
Longitude
Unknown
Altitude
Unknown
Speed
Unknown
Apparent Right ascension
Unknown
Apparent Declination
Unknown
Sunlit
N/A
Visualization observer readout
Local Sidereal Time
07:57:07
Azimuth
Unknown
Elevation
Unknown
Doppler factor
Unknown
Orbital elements
Apogee altitude
36,216.106 km
Perigee altitude
36,021.682 km
Semi-major axis
42,497.031 km
Eccentricity
0.00229
Inclination
14.9334°
RAAN
356.3715°
Arg. of periapsis
123.298°
True anomaly
240.042°
Mean anomaly
240.2693°
Eccentric anomaly
240.15562°
Mean motion
0.24775 °/min
Orbital period
1,453.11 mins
BSTAR
0
Loading maneuver chart data...
Computing Atmospheric mass density...
Loading historical data...
Loading historical data...
Loading historical data...
Loading historical data...
Loading historical data...
Loading historical data...
Loading historical data...

Documentation

Showing up to 5 results
|